TimeCST,TemperatureF,Dew PointF,Humidity,Sea Level PressureIn,VisibilityMPH,Wind Direction,Wind SpeedMPH,Gust SpeedMPH,PrecipitationIn,Events,Conditions,WindDirDegrees,DateUTC
12:15 AM,-9999,-9999,N/A,29.75,1.2,WNW,32.2,42.6,N/A,,Clear,300,2013-02-11 06:15:00
12:35 AM,26.6,24.8,93,29.77,1.5,WNW,35.7,41.4,N/A,,Clear,300,2013-02-11 06:35:00
12:55 AM,26.6,23.0,86,29.80,1.8,WNW,28.8,40.3,N/A,,Clear,300,2013-02-11 06:55:00
1:15 AM,26.6,21.2,80,29.81,2.0,WNW,24.2,34.5,N/A,,Scattered Clouds,300,2013-02-11 07:15:00
1:35 AM,26.6,23.0,86,29.82,2.5,WNW,24.2,31.1,N/A,,Mostly Cloudy,290,2013-02-11 07:35:00
1:55 AM,26.6,23.0,86,29.83,2.5,WNW,24.2,31.1,N/A,,Overcast,290,2013-02-11 07:55:00
2:15 AM,26.6,23.0,86,29.85,2.0,WNW,27.6,34.5,N/A,,Overcast,290,2013-02-11 08:15:00
2:35 AM,26.6,24.8,93,29.86,2.0,WNW,26.5,33.4,N/A,,Overcast,290,2013-02-11 08:35:00
2:55 AM,26.6,23.0,86,29.88,2.0,WNW,28.8,36.8,N/A,,Overcast,290,2013-02-11 08:55:00
3:15 AM,24.8,21.2,86,29.89,2.0,WNW,26.5,35.7,N/A,,Overcast,290,2013-02-11 09:15:00
3:35 AM,24.8,21.2,86,29.90,2.5,WNW,25.3,36.8,N/A,,Overcast,290,2013-02-11 09:35:00
3:55 AM,24.8,21.2,86,29.90,3.0,WNW,26.5,32.2,N/A,,Overcast,290,2013-02-11 09:55:00
4:15 AM,26.6,21.2,80,29.91,8.0,WNW,28.8,35.7,N/A,,Overcast,290,2013-02-11 10:15:00
4:35 AM,26.6,21.2,80,29.92,10.0,WNW,28.8,33.4,N/A,,Overcast,290,2013-02-11 10:35:00
5:15 AM,24.8,19.4,80,29.94,10.0,WNW,24.2,29.9,N/A,,Overcast,290,2013-02-11 11:15:00
5:55 AM,24.8,19.4,80,29.96,10.0,WNW,21.9,29.9,N/A,,Overcast,290,2013-02-11 11:55:00
6:15 AM,24.8,19.4,80,29.96,10.0,WNW,26.5,-,N/A,,Overcast,290,2013-02-11 12:15:00
6:35 AM,24.8,19.4,80,29.97,10.0,WNW,20.7,31.1,N/A,,Overcast,290,2013-02-11 12:35:00
6:55 AM,24.8,19.4,80,29.97,10.0,WNW,25.3,31.1,N/A,,Overcast,300,2013-02-11 12:55:00
7:15 AM,24.8,19.4,80,29.99,10.0,WNW,24.2,28.8,N/A,,Overcast,290,2013-02-11 13:15:00
7:35 AM,24.8,19.4,80,29.99,10.0,WNW,23.0,29.9,N/A,,Overcast,300,2013-02-11 13:35:00
7:55 AM,24.8,19.4,80,30.01,10.0,WNW,19.6,28.8,N/A,,Overcast,290,2013-02-11 13:55:00
8:15 AM,24.8,19.4,80,30.01,10.0,WNW,23.0,27.6,N/A,,Overcast,290,2013-02-11 14:15:00
8:35 AM,24.8,19.4,80,30.02,9.0,WNW,20.7,25.3,N/A,,Overcast,290,2013-02-11 14:35:00
8:55 AM,24.8,19.4,80,30.03,9.0,WNW,21.9,-,N/A,,Overcast,290,2013-02-11 14:55:00
9:15 AM,24.8,19.4,80,30.05,8.0,NW,19.6,-,N/A,,Overcast,310,2013-02-11 15:15:00
9:35 AM,24.8,19.4,80,30.05,6.0,WNW,18.4,-,N/A,,Overcast,290,2013-02-11 15:35:00
9:55 AM,24.8,19.4,80,30.06,5.0,WNW,17.3,-,N/A,,Overcast,290,2013-02-11 15:55:00
10:15 AM,24.8,19.4,80,30.07,6.0,WNW,19.6,23.0,N/A,,Overcast,290,2013-02-11 16:15:00
10:35 AM,24.8,21.2,86,30.07,5.0,WNW,17.3,-,N/A,,Overcast,300,2013-02-11 16:35:00
10:55 AM,24.8,21.2,86,30.07,6.0,WNW,20.7,-,N/A,,Overcast,300,2013-02-11 16:55:00
11:15 AM,26.6,21.2,80,30.08,8.0,WNW,17.3,24.2,N/A,,Overcast,290,2013-02-11 17:15:00
11:35 AM,26.6,19.4,74,30.08,10.0,WNW,20.7,24.2,N/A,,Overcast,290,2013-02-11 17:35:00
11:55 AM,26.6,19.4,74,30.08,10.0,WNW,24.2,27.6,N/A,,Overcast,290,2013-02-11 17:55:00
12:15 PM,26.6,19.4,74,30.08,10.0,WNW,24.2,29.9,N/A,,Overcast,290,2013-02-11 18:15:00
12:35 PM,26.6,19.4,74,30.08,10.0,WNW,17.3,26.5,N/A,,Overcast,300,2013-02-11 18:35:00
12:55 PM,26.6,19.4,74,30.08,10.0,WNW,23.0,27.6,N/A,,Overcast,300,2013-02-11 18:55:00
1:15 PM,26.6,19.4,74,30.08,10.0,WNW,19.6,-,N/A,,Overcast,290,2013-02-11 19:15:00
1:35 PM,26.6,21.2,80,30.08,10.0,WNW,18.4,21.9,N/A,,Overcast,290,2013-02-11 19:35:00
1:55 PM,26.6,19.4,74,30.08,10.0,WNW,17.3,23.0,N/A,,Overcast,290,2013-02-11 19:55:00
2:15 PM,26.6,19.4,74,30.08,10.0,WNW,20.7,24.2,N/A,,Overcast,290,2013-02-11 20:15:00
2:35 PM,26.6,19.4,74,30.08,10.0,WNW,19.6,24.2,N/A,,Overcast,290,2013-02-11 20:35:00
2:55 PM,26.6,19.4,74,30.08,10.0,WNW,19.6,-,N/A,,Overcast,290,2013-02-11 20:55:00
3:15 PM,26.6,19.4,74,30.08,10.0,West,16.1,-,N/A,,Overcast,280,2013-02-11 21:15:00
3:35 PM,26.6,19.4,74,30.09,10.0,WNW,17.3,-,N/A,,Overcast,290,2013-02-11 21:35:00
3:55 PM,26.6,19.4,74,30.09,10.0,West,15.0,-,N/A,,Overcast,280,2013-02-11 21:55:00
4:55 PM,26.6,19.4,74,30.09,10.0,WNW,13.8,-,N/A,,Overcast,290,2013-02-11 22:55:00
5:15 PM,26.6,19.4,74,30.10,10.0,WNW,12.7,-,N/A,,Overcast,290,2013-02-11 23:15:00
5:35 PM,26.6,19.4,74,30.09,10.0,WNW,10.4,-,N/A,,Overcast,290,2013-02-11 23:35:00
5:55 PM,26.6,19.4,74,30.09,10.0,West,9.2,-,N/A,,Overcast,280,2013-02-11 23:55:00
6:15 PM,26.6,17.6,69,30.09,10.0,WNW,12.7,-,N/A,,Overcast,290,2013-02-12 00:15:00
6:35 PM,26.6,19.4,74,30.10,10.0,West,13.8,-,N/A,,Overcast,280,2013-02-12 00:35:00
6:55 PM,26.6,19.4,74,30.10,10.0,West,10.4,-,N/A,,Overcast,280,2013-02-12 00:55:00
7:15 PM,26.6,19.4,74,30.10,10.0,West,8.1,-,N/A,,Overcast,270,2013-02-12 01:15:00
7:35 PM,26.6,19.4,74,30.09,10.0,West,8.1,-,N/A,,Overcast,260,2013-02-12 01:35:00
7:55 PM,26.6,19.4,74,30.09,10.0,West,9.2,-,N/A,,Overcast,260,2013-02-12 01:55:00
8:15 PM,26.6,17.6,69,30.09,10.0,West,11.5,-,N/A,,Overcast,260,2013-02-12 02:15:00
8:35 PM,24.8,17.6,74,30.08,10.0,West,9.2,-,N/A,,Mostly Cloudy,260,2013-02-12 02:35:00
8:55 PM,23.0,15.8,74,30.08,10.0,WSW,5.8,-,N/A,,Clear,250,2013-02-12 02:55:00
9:15 PM,24.8,15.8,69,30.09,10.0,WSW,3.5,-,N/A,,Clear,240,2013-02-12 03:15:00
9:35 PM,23.0,17.6,80,30.09,10.0,SW,3.5,-,N/A,,Clear,220,2013-02-12 03:35:00
9:55 PM,23.0,17.6,80,30.08,10.0,SW,4.6,-,N/A,,Clear,220,2013-02-12 03:55:00
10:15 PM,21.2,17.6,86,30.09,10.0,SW,4.6,-,N/A,,Clear,220,2013-02-12 04:15:00
10:35 PM,21.2,17.6,86,30.08,10.0,SSW,5.8,-,N/A,,Clear,210,2013-02-12 04:35:00
10:55 PM,19.4,17.6,93,30.08,10.0,SSW,5.8,-,N/A,,Clear,210,2013-02-12 04:55:00
11:15 PM,19.4,17.6,93,30.08,10.0,SW,4.6,-,N/A,,Clear,220,2013-02-12 05:15:00
11:35 PM,19.4,15.8,86,30.08,10.0,SW,4.6,-,N/A,,Clear,220,2013-02-12 05:35:00
11:55 PM,19.4,17.6,93,30.08,10.0,SSW,4.6,-,N/A,,Clear,210,2013-02-12 05:55:00